Regional Weather Roundup
Issued by NWS

Home | Current Version | Previous Version | Graphics & Text | Print | Product List | Glossary On
Versions: 1 2 3 4 5 6 7 8 9 10 11 12 13 14 15 16 17 18 19 20 21 22 23 24 25 26 27 28 29 30 31 32 33 34 35 36 37 38 39 40 41 42 43 44 45 46 47 48 49 50
093
ASUS45 KSLC 200510
RWRUT

UTAH REGIONAL WEATHER ROUNDUP
NATIONAL WEATHER SERVICE SALT LAKE CITY UT
1100 PM MDT TUE SEP 19 2017

UTZ001>011-023>025-200600-

NORTHERN UTAH

CITY           SKY/WX    TMP DP  RH WIND       PRES   REMARKS
BRIGHAM CITY   CLEAR     48  36  64 NW7       29.96S
HILL AFB       CLEAR     48  35  60 E5        29.95R
LOGAN          PTCLDY    43  39  86 CALM      29.97S
OGDEN          CLEAR     48  37  65 CALM      29.94R
SALT LAKE CITY PTCLDY    55  35  47 NW5       29.93R
TOOELE VALLEY  PTCLDY    46  41  81 CALM      29.94R
WENDOVER       CLEAR     54  21  27 E8        29.93R
HEBER CITY     MOCLDY    43  36  75 CALM      29.96S
WEST JORDAN    PTCLDY    50  42  74 W3        29.95R

$$

UTZ011>015-024>027-200600-

CENTRAL/NORTHEAST UTAH

CITY           SKY/WX    TMP DP  RH WIND       PRES   REMARKS
PROVO AIRPORT  PTCLDY    52  40  63 SE3       29.95R
MOAB/CANYONLAN PTCLDY    68  37  32 W15       29.79R
DELTA          CLEAR     52  36  54 N3        29.93R
PRICE          CLEAR     55  29  36 NW16      29.93R
ROOSEVELT      CLOUDY    52  36  54 E5        29.96R
VERNAL         CLOUDY    51  38  60 NE7       29.95R

$$

UTZ013>016-019>022-027-200600-

SOUTHERN UTAH

CITY           SKY/WX    TMP DP  RH WIND       PRES   REMARKS
BRYCE CANYON   CLEAR     54  34  46 SW13      30.05S
CEDAR CITY     CLEAR     60  36  40 SW10      29.93S
MILFORD        CLEAR     58  31  35 N15       29.91R
ST GEORGE      MOCLDY    74  37  26 SE8       29.80S
HANKSVILLE     CLEAR     73  30  20 W14       29.83R
BLANDING         N/A     60  31  33 CALM      30.00R

$$

REGIONAL REPORTS     COLORADO/ARIZONA

CITY           SKY/WX    TMP DP  RH WIND       PRES   REMARKS
CRAIG, CO      CLOUDY    42  38  85 E3        30.03F
GRAND JUNCTION PTCLDY    62  38  40 N7        29.81R
RIFLE, CO      CLOUDY    55  36  48 NW13      29.91R
MONTROSE, CO   PTCLDY    56  31  38 S6        29.91R
CORTEZ, CO     CLEAR     67  19  16 S18       29.95S
PAGE, AZ       CLEAR     74  33  22 CALM      29.87R
GRAND CANYON   CLEAR     51  31  46 CALM      30.08R
KINGMAN, AZ    CLEAR     67  40  37 SW10      29.87F
FLAGSTAFF, AZ  PTCLDY    55  31  39 W9        30.13R

$$

REGIONAL REPORTS    NEVADA/IDAHO/WYOMING

CITY           SKY/WX    TMP DP  RH WIND       PRES   REMARKS
LAS VEGAS, NV  CLEAR     80  40  23 S8        29.74R
ELY, NY        CLEAR     47  19  33 W8        30.00S
ELKO, NV       CLEAR     39  18  42 SW3       29.96S
POCATELLO, ID  CLEAR     47  31  53 SW13      29.94S
BURLEY, ID     CLEAR     39  34  82 SW6       29.92S WCI  35
FORT BRIDGER,    N/A     34  32  94 W7        30.03R WCI  27
EVANSTON, WY   CLEAR     38  29  70 N7        30.01R WCI  33
ROCK SPRINGS,  CLOUDY    35  30  82 W5        30.01R WCI  31
KEMMERER, WY     N/A     32  30  93 W8        30.01R WCI  25

$$




USA.gov is the U.S. government's official web portal to all federal, state and local government web resources and services.